Location: *
(37.5724°S, 58.0067°E)
Time: 19:38:06
(UTC+00:00)

Cosmos 1680 Rocket - Pass Details

Date: 26 September 2020
Orbit: 760 x 781 km, 74.1° (Epoch: 27 October)

Event Time Altitude Azimuth Distance (km) Brightness Sun altitude
Rises 14:29:28 0° 1° (N) 3,248 6.7 -5.0°
Reaches altitude 10° 14:31:55 10° 7° (N) 2,331 5.9 -5.5°
Maximum altitude 14:36:55 44° 78° (ENE) 1,084 3.9 -6.5°
Drops below altitude 10° 14:42:00 10° 148° (SSE) 2,366 5.8 -7.5°
Sets 14:44:30 0° 154° (SSE) 3,301 6.6 -8.0°
